This demonstration page uses our WeatherBlox Daily Observations layout. Learn more.

Left ArrowRight Arrow

39.01783, -85.05884

Hourly Observations for January 31, 2020

Temp ( °F °C ) Dew Point ( °F °C ) Humidity (%) Winds ( mph kmh ) Pressure ( in mb ) Visibility ( mi km ) Precip ( " mm )
12:52 am 00:52 Cloudy 35 1.7 25 -3.9 67 67 E 8 13 30.19 1022 10 16 0.00 0.00
1:52 am 01:52 Cloudy 35 1.7 25 -3.9 67 67 ENE 5 7 30.18 1022 10 16 0.00 0.00
2:52 am 02:52 Cloudy 34 1.1 25 -3.9 70 70 ENE 7 11 30.17 1022 10 16 0.00 0.00
3:52 am 03:52 Cloudy 34 1.1 25 -3.9 70 70 E 6 9 30.16 1021 10 16 0.00 0.00
4:52 am 04:52 Cloudy 34 1.1 25 -3.9 70 70 NE 7 11 30.15 1021 10 16 0.00 0.00
5:52 am 05:52 Cloudy 34 1.1 25 -3.9 70 70 ENE 8 13 30.15 1021 10 16 0.00 0.00
6:52 am 06:52 Cloudy 34 1.1 25 -3.9 70 70 ENE 7 11 30.16 1021 10 16 0.00 0.00
7:52 am 07:52 Cloudy with Light Snow 34 1.1 25 -3.9 70 70 N 6 9 30.16 1021 3 5 0.00 0.00
8:01 am 08:01 Cloudy with Light Snow 33 0.6 27 -2.8 78 78 NNE 6 9 30.18 1022 2 2 0.00 0.00
8:21 am 08:21 Cloudy with Light Snow 33 0.6 28 -2.2 82 82 NNE 7 11 30.18 1022 1 2 0.00 0.00
8:52 am 08:52 Cloudy with Light Snow 32 0 28 -2.2 85 85 NNE 7 11 30.16 1021 1 2 0.01 0.25
9:17 am 09:17 Mostly Cloudy with Snow 32 0 29 -1.7 88 88 NNE 5 7 30.21 1023 1 1 0.01 0.25
9:31 am 09:31 Cloudy with Snow 32 0 29 -1.7 88 88 NE 5 7 30.21 1023 1 1 0.01 0.25
9:52 am 09:52 Cloudy with Snow 32 0 29 -1.7 88 88 NNE 7 11 30.18 1022 1 1 0.03 0.76
10:03 am 10:03 Cloudy with Snow 32 0 29 -1.7 88 88 NE 6 9 30.22 1023 1 1 0.00 0.00
10:52 am 10:52 Cloudy with Snow 33 0.6 30 -1.1 89 89 ENE 5 7 30.18 1022 1 1 0.03 0.76
11:52 am 11:52 Cloudy with Light Snow 33 0.6 31 -0.6 92 92 E 3 6 30.18 1022 1 1 0.03 0.76
11:57 am 11:57 Cloudy with Light Snow 33 0.6 31 -0.6 92 92 E 5 7 30.20 1023 1 1 0.00 0.00
12:03 pm 12:03 Cloudy with Light Snow 34 1.1 31 -0.6 89 89 E 3 6 30.20 1023 1 2 0.00 0.00
12:28 pm 12:28 Cloudy with Light Snow 34 1.1 31 -0.6 89 89 E 5 7 30.19 1022 1 2 0.00 0.00
12:52 pm 12:52 Cloudy with Light Snow 35 1.7 32 0 89 89 NE 3 6 30.15 1021 2 2 0.01 0.25
1:43 pm 13:43 Cloudy with Mist and Fog 36 2.2 33 0.6 89 89 NE 3 6 30.16 1021 2 2 0.00 0.00
1:52 pm 13:52 Cloudy with Mist and Fog 36 2.2 33 0.6 89 89 N 3 6 30.13 1020 2 2 0.00 0.00
2:25 pm 14:25 Cloudy with Mist and Fog 36 2.2 32 0 86 86 Calm 30.15 1021 2 2 0.00 0.00
2:52 pm 14:52 Cloudy with Mist and Fog 36 2.2 33 0.6 89 89 NNE 3 6 30.12 1020 2 3 0.00 0.00
3:52 pm 15:52 Cloudy with Mist and Fog 37 2.8 33 0.6 86 86 N 6 9 30.11 1020 2 3 0.00 0.00
4:52 pm 16:52 Cloudy with Mist and Fog 37 2.8 34 1.1 89 89 Calm 30.12 1020 2 3 0.00 0.00
5:52 pm 17:52 Cloudy with Mist and Fog 37 2.8 33 0.6 86 86 NE 6 9 30.12 1020 2 3 0.00 0.00
6:52 pm 18:52 Cloudy with Mist and Fog 37 2.8 34 1.1 89 89 NNE 6 9 30.12 1020 2 3 0.00 0.00
7:52 pm 19:52 Cloudy with Mist and Fog 37 2.8 33 0.6 86 86 NE 7 11 30.13 1020 3 5 0.00 0.00
8:52 pm 20:52 Cloudy with Mist and Fog 37 2.8 34 1.1 89 89 NE 8 13 30.12 1020 3 5 0.00 0.00
9:52 pm 21:52 Cloudy with Mist and Fog 37 2.8 34 1.1 89 89 ENE 6 9 30.12 1020 3 5 0.00 0.00
10:52 pm 22:52 Cloudy with Mist and Fog 36 2.2 33 0.6 89 89 ENE 6 9 30.10 1019 3 5 0.00 0.00
11:52 pm 23:52 Cloudy with Mist and Fog 36 2.2 33 0.6 89 89 E 6 9 30.10 1019 3 5 0.00 0.00

Powered by AerisWeather